Regional Weather Roundup
Issued by NWS

Home | Current Version | Previous Version | Text Only | Print | Product List | Glossary On
Versions: 1 2 3 4 5 6 7 8 9 10 11 12 13 14 15 16 17 18 19 20 21 22 23 24 25 26 27 28 29 30 31 32 33 34 35 36 37 38 39 40 41 42 43 44 45 46 47 48 49
000
ASUS45 KTFX 311910
RWRMT
MONTANA REGIONAL WEATHER ROUNDUP
NATIONAL WEATHER SERVICE GREAT FALLS MT
100 PM MDT FRI JUL 31 2015

NOTE: "FAIR" INDICATES FEW OR NO CLOUDS BELOW 12000 FEET WITH NO
SIGNIFICANT WEATHER AND/OR OBSTRUCTIONS TO VISIBILITY.

MTZ001>007-043-312000-
WEST OF THE DIVIDE

CITY           SKY/WX    TMP DP  RH WIND       PRES   REMARKS
KALISPELL      CLEAR     87  38  17 S12       30.14F
MISSOULA       SUNNY     80  40  23 SW5       30.20F
BUTTE          SUNNY     82  27  13 NW8       30.33F
MULLAN PASS    SUNNY     77  27  15 CALM      30.36F
DEER LODGE       N/A     81  37  21 CALM      30.31F
EUREKA           N/A     90  39  17 W3        30.10F
HAMILTON         N/A     79  46  31 NW5       30.21F
LIBBY            N/A     88  39  18 SW5       30.11F
RONAN            N/A     87  44  22 S6        30.21F
$$

MTZ008-052>055-312000-
SOUTHWEST MONTANA

CITY           SKY/WX    TMP DP  RH WIND       PRES   REMARKS
BOZEMAN        SUNNY     85  44  23 E3        30.26F
DILLON         SUNNY     83  38  20 VRB3      30.30F
W YELLOWSTONE  MOSUNNY   75  32  20 CALM      30.41F
THREE FORKS      N/A     83  58  42 E2        30.22F
TWIN BRIDGES     N/A     82  43  25 SE7       30.24F
$$

MTZ009-010-012-014-046-048-049-054-312000-
EAST SLOPES AND CENTRAL MONTANA

CITY           SKY/WX    TMP DP  RH WIND       PRES   REMARKS
CUT BANK       SUNNY     87  29  12 VRB5      30.17F
GREAT FALLS    SUNNY     87  33  14 MISG      30.18F
MALMSTROM AFB  SUNNY     85  35  16 W7        30.17F
HELENA         SUNNY     85  45  24 NE6       30.21F
$$

MTZ011-013-016-021-045-047-050-051-312000-
NORTH CENTRAL MONTANA

CITY           SKY/WX    TMP DP  RH WIND       PRES   REMARKS
HAVRE          SUNNY     87  47  24 VRB5      30.10F
LEWISTOWN      SUNNY     87  36  16 NW9       30.20F
CHINOOK          N/A     84  48  28 W3        30.09F
FORT BENTON      N/A     88  37  16 W3        30.13
$$

MTZ017>020-022>027-061-062-312000-
NORTHEAST MONTANA

CITY           SKY/WX    TMP DP  RH WIND       PRES   REMARKS
GLASGOW        SUNNY     88  41  19 S10       30.10F
JORDAN           N/A     92  38  15 VRB7G18   30.09F
SIDNEY         SUNNY    N/A N/A N/A E6        30.11F
WOLF POINT     SUNNY     89  43  20 SE3       30.10F
MALTA            N/A     88  50  27 CALM      30.05F
PLENTYWOOD       N/A     81  48  32 N5        30.13F
POPLAR           N/A     88  45  22 S9        30.11F
$$

MTZ028>42-056>058-312000-
SOUTHCENTRAL AND SOUTHEAST MONTANA

CITY           SKY/WX    TMP DP  RH WIND       PRES   REMARKS
BAKER          SUNNY     89  39  17 S7        30.18F
BILLINGS       MOSUNNY   86  43  22 S7        30.18F
LIVINGSTON     SUNNY     90  34  13 W16       30.23F
MILES CITY     SUNNY     92  42  17 SE7G16    30.11F
FORSYTH          N/A     91  39  16 E6        30.10F
LAUREL           N/A     89  43  20 S6        30.14F
ROUNDUP          N/A     88  42  19 S3        30.06F
$$

REGIONAL REPORTS...DAKOTAS

CITY           SKY/WX    TMP DP  RH WIND       PRES   REMARKS
WILLISTON      SUNNY     85  47  26 VRB6      30.13F
MINOT          SUNNY     81  50  33 NW10G21   30.10S
DICKINSON      SUNNY     86  41  20 N7        30.14F
BEACH          FAIR      86  39  19 NE5       30.17F
CROSBY         FAIR      77  48  36 NW7       30.14F
BISMARCK       SUNNY     88  52  29 NW9G20    30.10F
GRAND FORKS    MOSUNNY   80  49  33 NW15G30   30.03F
FARGO          SUNNY     82  51  34 NW16      30.06F
BUFFALO SD       N/A     88  39  17 SE7       30.13F
RAPID CITY     SUNNY     84  53  34 NE7       30.21F
$$

REGIONAL REPORTS...WYOMING/IDAHO/WASHINGTON

CITY           SKY/WX    TMP DP  RH WIND       PRES   REMARKS
GILLETTE       MOSUNNY   88  40  18 SE7       30.22F
SHERIDAN       SUNNY     90  39  16 VRB5      30.20F
BUFFALO WY     SUNNY     87  37  17 E9        30.27F
CODY           SUNNY     86  36  16 E6        30.26F
YELLOWSTONE LA   N/A     74  39  28 CALM      30.51F
IDAHO FALLS    SUNNY     85  36  17 VRB6      30.28F
SALMON         SUNNY     79  46  31 CALM      30.23F
BOISE          SUNNY     91  37  15 VRB3      30.16F
SPOKANE        MOSUNNY   94  40  15 NE8       30.10F HX  90
$$

REGIONAL REPORTS...ALBERTA

CITY           SKY/WX    TMP DP  RH WIND       PRES   REMARKS
EDMONTON       SUNNY     79  52  38 S10G21    30.02F
CALGARY        MOSUNNY   82  41  23 SE10      30.11F
LETHBRIDGE     MOSUNNY   84  46  26 SE6       30.11F
MEDICINE HAT   MOSUNNY   84  48  28 S3        30.07F
WATERTON GATE    N/A     86  34  15 S14G22      N/A
CARDSTON         N/A     88  28  11 W6          N/A
MILK RIVER       N/A     88  34  14 N7          N/A
ONEFOUR          N/A     82  45  26 NW12        N/A
$$

REGIONAL REPORTS...SASKATCHEWAN

CITY           SKY/WX    TMP DP  RH WIND       PRES   REMARKS
SWIFT CURRENT  SUNNY     77  50  38 E12G18    30.13F
REGINA         MOSUNNY   77  46  33 SW2       30.13F
SASKATOON      MOSUNNY   75  46  35 W5        30.11F
CYPRESS HILLS    N/A     77  46  33 S7          N/A
VAL MARIE        N/A     86  46  25 S10         N/A
ROCKGLEN         N/A     79  45  29 N6          N/A
ASSINIBOIA       N/A     79  43  27 S13         N/A
$$


USA.gov is the U.S. government's official web portal to all federal, state and local government web resources and services.